Bogalusa, LA

7:56 AM CDT on September 29, 2016 (GMT -0500)
Carr Memorial

Weather History for KBXA - September, 2013

Change the Weather History Date:

Saturday, September 21, 2013

  Actual Average Record
Temperature  
Mean Temperature 76 °F -  
Max Temperature 82 °F 88 °F 92 °F (2016)
Min Temperature 71 °F 64 °F 64 °F (2014)
Cooling Degree Days 12    
Growing Degree Days 26 (Base 50)    
Moisture  
Dew Point 72 °F    
Average Humidity 84    
Maximum Humidity 90    
Minimum Humidity 70    
Precipitation  
Precipitation 1.94 in - - ()
Sea Level Pressure  
Sea Level Pressure 29.80 in    
Wind  
Wind Speed 5 mph (ENE)    
Max Wind Speed 14 mph    
Max Gust Speed 9 mph    
Visibility 9 miles    
Events Rain , Thunderstorm    
Averages and records for this station are not official NWS values.
T = Trace of Precipitation, MM = Missing Value Source: NWS Daily Summary

Daily Weather History Graph

Daily Weather History Graph

Search for Another Location

Airport or City:

Trip Planner

Search our weather history database for the weather conditions in past years. The results will help you decide how hot, cold, wet, or windy it might be!

Date:

Astronomy

Sep. 21, 2013 Rise Set
Actual Time 6:47 AM CDT 6:56 PM CDT
Civil Twilight 6:23 AM CDT 7:21 PM CDT
Nautical Twilight 5:55 AM CDT 7:49 PM CDT
Astronomical Twilight 5:26 AM CDT 8:17 PM CDT
Moon 8:21 PM CDT (9/21) 8:53 AM CDT (9/21)
Length of Visible Light 12h 57m
Length of Day
12h 09m
Waning Gibbous, 94% of the Moon is Illuminated
Sep 21
Waning Gibbous
Sep 26
Last Quarter
Oct 4
New
Oct 11
First Quarter
Oct 18
Full

Hourly Weather History & Observations

Time (CDT) Temp. Heat Index Dew Point Humidity Pressure Visibility Wind Dir Wind Speed Gust Speed Precip Events Conditions
12:15 AM 80.2 °F 85.2 °F 74.7 °F 83% 29.83 in 10.0 mi SSE 5.8 mph - N/A   Clear
12:35 AM 80.1 °F 84.8 °F 74.7 °F 83% 29.83 in 10.0 mi SSE 5.8 mph - N/A   Clear
12:55 AM 80.1 °F 84.8 °F 74.7 °F 83% 29.83 in 10.0 mi South 5.8 mph - N/A   Clear
1:15 AM 79.9 °F - 74.7 °F 84% 29.82 in 10.0 mi SSE 8.1 mph - N/A   Clear
1:35 AM 79.7 °F - 74.8 °F 85% 29.82 in 10.0 mi SSE 5.8 mph - N/A   Clear
1:55 AM 79.9 °F - 75.0 °F 85% 29.82 in 10.0 mi South 3.5 mph - N/A   Clear
2:15 AM 80.1 °F 85.1 °F 75.2 °F 85% 29.82 in 7.0 mi South 3.5 mph - N/A   Clear
2:35 AM 79.9 °F - 74.8 °F 85% 29.81 in 10.0 mi South 4.6 mph - N/A   Clear
2:55 AM 79.9 °F - 75.0 °F 85% 29.80 in 10.0 mi SSE 5.8 mph - N/A   Clear
3:15 AM 79.7 °F - 75.2 °F 86% 29.80 in 10.0 mi South 4.6 mph - N/A Rain Light Rain
3:35 AM 79.7 °F - 75.2 °F 86% 29.80 in 10.0 mi SSE 3.5 mph - N/A Rain Light Rain
3:55 AM 79.7 °F - 75.2 °F 86% 29.80 in 10.0 mi Calm Calm - 0.01 in Rain Light Rain
4:15 AM 79.3 °F - 75.2 °F 87% 29.80 in 5.0 mi Calm Calm - 0.02 in Rain Rain
4:35 AM 79.0 °F - 75.2 °F 88% 29.81 in 7.0 mi Calm Calm - 0.06 in Rain Rain
4:55 AM 79.0 °F - 75.2 °F 88% 29.81 in 4.0 mi Calm Calm - 0.11 in Rain , Thunderstorm Rain
5:15 AM 79.0 °F - 75.4 °F 89% 29.81 in 4.0 mi NNE 4.6 mph - 0.05 in Rain Rain
5:35 AM 78.3 °F - 74.7 °F 89% 29.80 in 5.0 mi North 11.5 mph - 0.11 in Rain Rain
5:55 AM 75.6 °F - 72.0 °F 89% 29.80 in 5.0 mi NNE 6.9 mph - 0.20 in Rain Rain
6:15 AM 74.7 °F - 71.2 °F 89% 29.80 in 7.0 mi North 6.9 mph - 0.07 in Rain Heavy Rain
6:35 AM 74.7 °F - 71.2 °F 89% 29.83 in 2.5 mi North 4.6 mph - 0.30 in Rain Heavy Rain
6:55 AM 74.7 °F - 71.2 °F 89% 29.85 in 2.0 mi West 4.6 mph 9.2 mph 1.05 in Rain Heavy Rain
7:15 AM 74.5 °F - 70.9 °F 88% 29.84 in 4.0 mi NW 4.6 mph - 0.11 in Rain Heavy Rain
7:35 AM 74.3 °F - 70.9 °F 89% 29.83 in 3.0 mi Calm Calm - 0.25 in Rain Heavy Rain
7:55 AM 74.5 °F - 71.2 °F 90% 29.81 in 3.0 mi North - - 0.36 in Rain Heavy Rain
8:15 AM 74.5 °F - 71.2 °F 90% 29.81 in 4.0 mi North - - 0.06 in Rain Rain
8:35 AM 74.5 °F - 71.2 °F 90% 29.82 in 7.0 mi North - - 0.10 in Rain Rain
8:55 AM 74.7 °F - 71.6 °F 90% 29.82 in 10.0 mi North - - 0.11 in Rain Light Rain
9:15 AM 75.2 °F - 71.8 °F 89% 29.82 in 10.0 mi North - - 0.01 in Rain Light Rain
9:35 AM 75.7 °F - 72.3 °F 89% 29.82 in 7.0 mi SSW 4.6 mph - 0.02 in Rain Light Rain
9:55 AM 76.1 °F - 71.8 °F 86% 29.83 in 10.0 mi North - - 0.02 in   Light Drizzle
10:15 AM 76.1 °F - 72.0 °F 87% 29.83 in 10.0 mi SSW 5.8 mph - N/A   Light Drizzle
10:35 AM 76.5 °F - 72.1 °F 86% 29.83 in 10.0 mi SW 5.8 mph - N/A   Light Drizzle
10:55 AM 76.8 °F - 72.1 °F 85% 29.82 in 10.0 mi South 3.5 mph - N/A   Light Drizzle
11:15 AM 77.9 °F - 72.5 °F 83% 29.81 in 10.0 mi SW 5.8 mph - N/A   Unknown
11:35 AM 78.4 °F - 71.8 °F 80% 29.82 in 10.0 mi WSW 4.6 mph - N/A   Unknown
11:55 AM 78.6 °F - 71.8 °F 79% 29.81 in 10.0 mi North - - N/A   Unknown
12:15 PM 78.8 °F - 72.1 °F 80% 29.81 in 10.0 mi North - - N/A   Unknown
12:35 PM 79.2 °F - 72.0 °F 78% 29.81 in 10.0 mi North - - N/A Rain Light Rain
12:55 PM 79.2 °F - 72.3 °F 79% 29.80 in 10.0 mi North - - N/A   Light Drizzle
1:15 PM 79.2 °F - 72.1 °F 79% 29.79 in 10.0 mi North - - N/A   Unknown
1:35 PM 79.9 °F - 72.1 °F 77% 29.79 in 10.0 mi North - - N/A   Unknown
1:55 PM 80.1 °F 84.1 °F 72.5 °F 78% 29.78 in 10.0 mi Calm Calm - N/A   Unknown
2:15 PM 79.9 °F - 72.1 °F 77% 29.78 in 10.0 mi North - - N/A   Unknown
2:35 PM 81.0 °F 85.4 °F 72.3 °F 75% 29.77 in 10.0 mi North - - N/A   Unknown
2:55 PM 81.5 °F 86.3 °F 72.7 °F 74% 29.77 in 10.0 mi North - - N/A   Unknown
3:15 PM 82.2 °F 86.9 °F 71.4 °F 70% 29.76 in 10.0 mi Calm Calm - N/A   Unknown
3:35 PM 81.9 °F 86.4 °F 71.6 °F 71% 29.76 in 10.0 mi SW 4.6 mph - N/A   Unknown
3:55 PM 82.2 °F 87.1 °F 72.0 °F 71% 29.76 in 10.0 mi Calm Calm - N/A   Unknown
4:15 PM 81.9 °F 86.4 °F 71.6 °F 71% 29.75 in 10.0 mi WSW 3.5 mph - N/A   Unknown
4:35 PM 81.5 °F 86.3 °F 72.5 °F 74% 29.75 in 10.0 mi Calm Calm - N/A   Overcast
4:55 PM 81.0 °F 85.8 °F 73.2 °F 77% 29.74 in 10.0 mi Calm Calm - N/A   Overcast
5:15 PM 76.5 °F - 70.9 °F 83% 29.75 in 10.0 mi North 13.8 mph - N/A Rain Light Rain
5:35 PM 74.5 °F - 70.2 °F 86% 29.76 in 10.0 mi North - - N/A   Drizzle
5:55 PM 73.8 °F - 69.6 °F 87% 29.77 in 10.0 mi North - - 0.01 in Rain Rain
6:15 PM 73.4 °F - 69.3 °F 87% 29.77 in 10.0 mi North - - N/A   Overcast
6:35 PM 73.4 °F - 68.9 °F 86% 29.77 in 10.0 mi NNE 6.9 mph - N/A   Drizzle
6:55 PM 72.9 °F - 68.5 °F 86% 29.78 in 10.0 mi NNE 8.1 mph - N/A   Light Drizzle
7:15 PM 72.5 °F - 68.2 °F 86% 29.78 in 10.0 mi NNE 6.9 mph - N/A   Overcast
7:35 PM 72.5 °F - 68.0 °F 86% 29.78 in 10.0 mi NNE 6.9 mph - N/A   Overcast
7:55 PM 72.5 °F - 68.2 °F 86% 29.79 in 10.0 mi NNE 5.8 mph - N/A   Overcast
8:15 PM 72.1 °F - 68.0 °F 87% 29.79 in 10.0 mi NNE 5.8 mph - N/A   Overcast
8:35 PM 72.1 °F - 68.2 °F 87% 29.79 in 10.0 mi NNE 3.5 mph - N/A   Drizzle
8:55 PM 72.0 °F - 68.4 °F 88% 29.80 in 10.0 mi NE 4.6 mph - N/A Rain Rain
9:15 PM 71.8 °F - 68.2 °F 88% 29.80 in 10.0 mi NNE 3.5 mph - 0.01 in Rain Light Rain
9:35 PM 71.8 °F - 68.2 °F 88% 29.81 in 7.0 mi NE 5.8 mph - 0.04 in Rain Light Rain
9:55 PM 71.6 °F - 68.0 °F 88% 29.82 in 10.0 mi NE 5.8 mph - 0.06 in Rain Light Rain
10:15 PM 71.6 °F - 68.0 °F 88% 29.81 in 10.0 mi NE 4.6 mph - 0.01 in   Drizzle
10:35 PM 71.6 °F - 68.0 °F 88% 29.81 in 10.0 mi NE 4.6 mph - 0.01 in   Drizzle
10:55 PM 71.6 °F - 68.0 °F 88% 29.82 in 10.0 mi NNE 4.6 mph - 0.01 in   Overcast
11:15 PM 71.4 °F - 68.0 °F 89% 29.82 in 10.0 mi NNE 4.6 mph - N/A   Overcast
11:35 PM 71.6 °F - 68.0 °F 88% 29.82 in 10.0 mi NE 3.5 mph - N/A Rain Rain
11:55 PM 71.6 °F - 68.0 °F 88% 29.82 in 7.0 mi NE 5.8 mph - N/A   Drizzle